Location: Bothwell
(42.3833°S, 147.0000°E)
Time: 21:59:04
(UTC+11:00)

RS-44 - Pass Details

Date: 02 October 2022
Orbit: 1175 x 1510 km, 82.5° (Epoch: 29 November)

Event Time Altitude Azimuth Distance (km) Brightness Sun altitude
Exits shadow 21:16:15 13° 113° (ESE) 3,449 ? -21.5°
Drops below altitude 10° 21:19:00 10° 131° (SE) 3,688 ? -21.9°
Sets 21:24:06 0° 156° (SSE) 4,686 ? -22.8°
